Погода в Курске

Погода в Курске : погода сейчас, прогноз погоды и архив. Всё, что Вы хотите узнать о погоде в Курске!

Хотите узнать прогноз погоды в Курске? Тогда Вам сюда: Погода в Курске

Поиск расширенной информации на нашем сайте:

Полезная информация:

Другие новости

Новости СМИ2

Главная страница сайта

Новости сайта

03.07.2017

Напоминаем, что на нашем специализированном сайте Метеоцентр.Азия вы можете получить высокодетализированные автоматические прогнозы погоды по пунктам России, СНГ и мира в авиационном формате (включающие направление и скорость ветра, видимость, явления погоды, количество и форму облачности, нижнюю и верхнюю границу облачности).

Рекомендуем:

Погода в Курске - сегодня

Время (UTC), дата Ветер
(°,м/с) 
Видим.   Явления Облачность Т
(°С)
Тd
(°С)
f(%) Тe
(°С)
Pmin
(гПа)
dP
(гПа)
Po
(мм)
O2
(г/м3)
Тmin Tmax R s Состояние
почвы
21 18.05.19 040 (СВ) 10 км    3/0 верхняя 
[Ci fib]
+15 +6.1 55 +16  1016.4  0.2  740  282           
00 19.05.19 030 (СВ) 10 км    3/0 верхняя 
[Ci fib]
+12.7 +6.5 66 +14  1016.5  0.1  740  284           
03 19.05.19 020 (С) 10 км    1/0 верхняя 
[Ci fib]
+13.4 +6.5 63 +15  1016.6  0.2  740  283  +12.5         
06 19.05.19 020 (С) 10 км    1/0 верхняя 
[Ci fib]
+17.1 +9.6 61 +19  1017.1  0.8  741  279  +12.5        сухая 
09 19.05.19 340 (С) 10 км    6/1 600 м верхняя 
[Cu hum|Ci fib]
+21.5 +6.8 39 +22  1016.6  741  276           
12 19.05.19 030 (СВ) 10 км    3/0 верхняя 
[Ci fib]
+22.5 +4.7 31 +23  1016.2  -0.3  741  275           
15 19.05.19 070 (В) 10 км    3/0 верхняя 
[Ci fib]
+22.2 +4.3 31 +22  1016.4  0.1  741  275           
18 19.05.19 тихо ()   10 км    6/0 верхняя 
[Ci fib]
+18.4 +5.8 44 +18  1017.6  0.8  741  279    +23.1       
21 19.05.19 050 (СВ) 10 км    4/0 верхняя 
[Ci fib]
+16 +7.7 58 +17  1018.6  0.8  742  281           
00 20.05.19 070 (В) 10 км    6/0 верхняя 
[Ci fib]
+14.5 +5.6 55 +16  1019.7  0.9  743  283           
03 20.05.19 070 (В) 10 км    6/0 верхняя 
[Ci fib]
+14.1 +5.5 56 +15  1020.6  0.8  743  284  +13         
06 20.05.19 140 (ЮВ) 10 км    8/0 верхняя 
[Ci fib]
+18.7 +7.6 48 +20  1021.5  1.3  744  279  +13        сухая 
09 20.05.19 090 (В) 10 км    3/0 верхняя 
[Ci fib]
+21.1 +4.7 34 +21  1021.4  0.2  744  278           
12 20.05.19 090 (В) 10 км    3/0 верхняя 
[Ci fib]
+22.3 +5.1 33 +22  1020.3  -1  744  276           
15 20.05.19 090 (В) 10 км    4/0 верхняя 
[Ci fib]
+22.2 +5 33 +22  1019.6  -0.7  743  276           
18 20.05.19 100 (В) 10 км    4/0 верхняя 
[Ci fib]
+19.1 +5.3 40 +20  1020  0.1  743  279    +22.9       
21 20.05.19 180 (Ю) 10 км    3/0 верхняя 
[Ci fib]
+16.4 +6.2 51 +18  1020.6  0.3  743  282           
00 21.05.19 150 (ЮВ) 10 км    ясно 
+14.4 +5.8 56 +16  1020.7  0.1  743  284           
03 21.05.19 120 (ЮВ) 10 км    ясно 
+13.8 +6.8 63 +15  1020.7  -0.1  743  284  +12.5         
06 21.05.19 170 (Ю) 10 км    ясно 
+18.6 +6.6 45 +20  1020.4  0.2  744  279  +12.5        сухая 
09 21.05.19 160 (Ю) 10 км    3/1 600 м верхняя 
[Cu hum|Ci fib]
+22.2 +5.1 33 +22  1019.5  -0.6  743  276           
12 21.05.19 150 (ЮВ) 4{10}  10 км    8/1 600 м верхняя 
[Cu hum|Ci fib]
+23.3 +5.3 31 +23  1018.1  -1.3  742  275           
15 21.05.19 140 (ЮВ) 10 км    8/0 верхняя 
[Ci fib]
+22.8 +5.6 33 +23  1016.3  -1.8  741  275           
18 21.05.19 120 (ЮВ) 10 км    9/4 600 м средняя, верхняя 
[Sc|Ac trans|Ci fib]
+19.4 +4.9 38 +20  1016.2  -0.5  740  278    +23.7       
21 21.05.19 150 (ЮВ) 4000 м  слаб. ливневой дождь  10/10 600 м кучево-дожд. 
[Cb cap]
+17.3 +5.5 46 +18  1016  -0.4  740  280           
Время (UTC), дата Ветер
(°,м/с) 
Видим.   Явления Облачность Т
(°С)
Тd
(°С)
f(%) Тe
(°С)
Pmin
(гПа)
dP
(гПа)
Po
(мм)
O2
(г/м3)
Тmin Tmax R s Состояние
почвы

Для получения пояснительной информации подведите курсор к названию столбца.

ПОГОДА в Курске - архив

Всё, что Вы хотите узнать о погоде в Курске - удобно и подробно!

Выберите нужную дату (начиная с 1 января 2018* года) и нажмите кнопку "Найти".
Будут отображены архивные сводки погоды по пункту Курск, начиная с указанной даты.


Отображать данные в формате CSV (для использования в таблицах Excel)


Внимание! Наш архив погоды предназначен исключительно для личного некоммерческого использования в познавательных целях. Если Вам необходимы официальные справки о состоянии погоды (для производственных, юридических, коммерческих и т.п. целей), обращайтесь в органы Росгидромета.

*Примечание: данная дата относится к архиву по метеостанциям СССР (Россия, СНГ, Балтия).
Архив по метеостанциям Зарубежной Европы и Азии (кроме Китая) хранится 10 дней, по другим регионам земного шара (Китай, Африка, Америка, Австралия, Океания) - 1 день.

Курск - район местоположения метеостанции


Название, широта, долгота, высота метеостанции:
Курск 51.8°ш. 36.2°д. 247 м над ур. моря [Российская Федерация]

Дополнительная информация

В oтличие oт бoльшинства пoгoдных сайтoв мы публикуем пoдрoбную метеoинфoрмацию в детальнoм прoфессиoнальнoм фoрмате.

Характеристики температуры и влажнoсти вoздуха измеряются на высoте 2 м в тени вдали oт зданий и деревьев.
Скoрoсть ветра измеряется на высoте 10 м (на урoвне рoста челoвека скoрoсть ветра ниже в 1.5-2 раза). Если метеoстанция нахoдится в гoрoде или в лесу, тo скoрoсть ветра занижена на 2-4 м/с пo сравнению с oткрытым местoм. Скoрoсть ветра над акватoриями крупных рек и oзёр, а также на вершинах хoлмoв на 2-5 м/с выше, чем в oбычных услoвиях.
Атмoсфернoе давление в разных тoчках местнoсти мoжет значительнo oтличаться oт давления на метеoстанции, в зависимoсти oт услoвий рельефа (при пoдъёме на 10 м давление пoнижается примернo на 1 мм рт.ст.).